Time,TemperatureF,DewpointF,PressureIn,WindDirection,WindDirectionDegrees,WindSpeedMPH,WindSpeedGustMPH,Humidity,HourlyPrecipIn,Conditions,Clouds,dailyrainin,SolarRadiationWatts/m^2,SoftwareType,DateUTC
2013-08-23 00:04:00,67.4,67.1,29.86,North,360,0.0,0.0,99,0.00,,,0.00,0,Wunderground v.1.15,2013-08-23 04:04:00,
2013-08-23 00:09:00,67.6,67.3,29.86,NNW,348,1.0,3.0,99,0.00,,,0.00,0,Wunderground v.1.15,2013-08-23 04:09:00,
2013-08-23 00:19:00,67.8,67.5,29.86,North,355,3.0,3.0,99,0.00,,,0.00,0,Wunderground v.1.15,2013-08-23 04:19:00,
2013-08-23 00:24:00,67.7,67.4,29.86,NNW,331,3.0,5.0,99,0.00,,,0.00,0,Wunderground v.1.15,2013-08-23 04:24:00,
2013-08-23 00:34:00,67.4,67.1,29.86,NNW,346,4.0,4.0,99,0.00,,,0.00,0,Wunderground v.1.15,2013-08-23 04:34:00,
2013-08-23 00:39:00,67.3,67.0,29.86,North,351,4.0,4.0,99,0.00,,,0.00,0,Wunderground v.1.15,2013-08-23 04:39:00,
2013-08-23 00:49:00,67.2,66.6,29.86,NNE,13,3.0,6.0,98,0.00,,,0.00,0,Wunderground v.1.15,2013-08-23 04:49:00,
2013-08-23 00:54:00,67.2,66.6,29.86,NNE,29,3.0,3.0,98,0.00,,,0.00,0,Wunderground v.1.15,2013-08-23 04:54:00,
2013-08-23 01:04:00,67.1,66.2,29.86,North,360,3.0,3.0,97,0.00,,,0.00,0,Wunderground v.1.15,2013-08-23 05:04:00,
2013-08-23 01:09:00,67.1,66.2,29.85,NE,48,4.0,4.0,97,0.00,,,0.00,0,Wunderground v.1.15,2013-08-23 05:09:00,
2013-08-23 01:19:00,67.2,66.0,29.86,NNW,338,4.0,7.0,96,0.00,,,0.00,0,Wunderground v.1.15,2013-08-23 05:19:00,
2013-08-23 01:24:00,67.3,65.8,29.86,NNE,27,5.0,6.0,95,0.00,,,0.00,0,Wunderground v.1.15,2013-08-23 05:24:00,
2013-08-23 01:29:00,67.4,65.9,29.86,NNW,336,6.0,6.0,95,0.00,,,0.00,0,Wunderground v.1.15,2013-08-23 05:29:00,
2013-08-23 01:34:00,67.5,65.7,29.86,North,5,6.0,6.0,94,0.00,,,0.00,0,Wunderground v.1.15,2013-08-23 05:34:00,
2013-08-23 01:39:00,67.6,65.8,29.86,NNW,340,5.0,8.0,94,0.00,,,0.00,0,Wunderground v.1.15,2013-08-23 05:39:00,
2013-08-23 01:49:00,67.7,65.6,29.86,North,360,5.0,13.0,93,0.00,,,0.00,0,Wunderground v.1.15,2013-08-23 05:49:00,
2013-08-23 01:54:00,67.7,65.6,29.86,NNW,333,6.0,6.0,93,0.00,,,0.00,0,Wunderground v.1.15,2013-08-23 05:54:00,
2013-08-23 01:59:00,67.8,65.4,29.86,North,5,6.0,6.0,92,0.00,,,0.00,0,Wunderground v.1.15,2013-08-23 05:59:00,
2013-08-23 02:04:00,67.8,65.4,29.86,NNW,336,5.0,10.0,92,0.00,,,0.00,0,Wunderground v.1.15,2013-08-23 06:04:00,
2013-08-23 02:09:00,67.8,65.4,29.86,NW,305,6.0,10.0,92,0.00,,,0.00,0,Wunderground v.1.15,2013-08-23 06:09:00,
2013-08-23 02:14:00,67.8,65.4,29.86,NW,319,7.0,7.0,92,0.00,,,0.00,0,Wunderground v.1.15,2013-08-23 06:14:00,
2013-08-23 02:19:00,67.8,65.4,29.86,NNW,348,7.0,8.0,92,0.00,,,0.00,0,Wunderground v.1.15,2013-08-23 06:19:00,
2013-08-23 02:24:00,67.8,65.4,29.86,North,350,8.0,8.0,92,0.00,,,0.00,0,Wunderground v.1.15,2013-08-23 06:24:00,
2013-08-23 02:34:00,67.7,65.3,29.86,North,11,7.0,7.0,92,0.00,,,0.00,0,Wunderground v.1.15,2013-08-23 06:34:00,
2013-08-23 02:39:00,67.7,65.3,29.86,North,355,7.0,10.0,92,0.00,,,0.00,0,Wunderground v.1.15,2013-08-23 06:39:00,
2013-08-23 02:44:00,67.6,64.9,29.86,North,5,7.0,7.0,91,0.00,,,0.00,0,Wunderground v.1.15,2013-08-23 06:44:00,
2013-08-23 02:54:00,67.6,64.9,29.86,NW,319,6.0,6.0,91,0.00,,,0.00,0,Wunderground v.1.15,2013-08-23 06:54:00,
2013-08-23 02:59:00,67.5,64.8,29.86,North,360,6.0,7.0,91,0.00,,,0.00,0,Wunderground v.1.15,2013-08-23 06:59:00,
2013-08-23 03:09:00,67.4,64.7,29.86,NNW,329,8.0,8.0,91,0.00,,,0.00,0,Wunderground v.1.15,2013-08-23 07:09:00,
2013-08-23 03:14:00,67.4,64.7,29.86,NNW,333,8.0,8.0,91,0.00,,,0.00,0,Wunderground v.1.15,2013-08-23 07:14:00,
2013-08-23 03:19:00,67.3,64.6,29.86,NNW,329,7.0,11.0,91,0.00,,,0.00,0,Wunderground v.1.15,2013-08-23 07:19:00,
2013-08-23 03:24:00,67.2,64.5,29.86,North,9,7.0,7.0,91,0.00,,,0.00,0,Wunderground v.1.15,2013-08-23 07:24:00,
2013-08-23 03:29:00,67.2,64.5,29.86,NNW,344,6.0,7.0,91,0.00,,,0.00,0,Wunderground v.1.15,2013-08-23 07:29:00,
2013-08-23 03:39:00,67.0,64.3,29.86,NNW,341,5.0,5.0,91,0.00,,,0.00,0,Wunderground v.1.15,2013-08-23 07:39:00,
2013-08-23 03:49:00,66.7,64.0,29.86,NW,315,6.0,6.0,91,0.00,,,0.00,0,Wunderground v.1.15,2013-08-23 07:49:00,
2013-08-23 03:54:00,66.6,63.9,29.86,NNW,346,5.0,5.0,91,0.00,,,0.00,0,Wunderground v.1.15,2013-08-23 07:54:00,
2013-08-23 03:59:00,66.5,64.1,29.86,North,350,5.0,6.0,92,0.00,,,0.00,0,Wunderground v.1.15,2013-08-23 07:59:00,
2013-08-23 04:09:00,66.2,63.8,29.87,NNW,344,4.0,7.0,92,0.00,,,0.00,0,Wunderground v.1.15,2013-08-23 08:09:00,
2013-08-23 04:14:00,66.1,63.7,29.86,North,355,4.0,7.0,92,0.00,,,0.00,0,Wunderground v.1.15,2013-08-23 08:14:00,
2013-08-23 04:19:00,66.0,63.6,29.87,North,355,4.0,7.0,92,0.00,,,0.00,0,Wunderground v.1.15,2013-08-23 08:19:00,
2013-08-23 04:29:00,65.6,63.2,29.87,North,355,4.0,7.0,92,0.00,,,0.00,0,Wunderground v.1.15,2013-08-23 08:29:00,
2013-08-23 04:34:00,65.4,63.0,29.87,North,5,4.0,7.0,92,0.00,,,0.00,0,Wunderground v.1.15,2013-08-23 08:34:00,
2013-08-23 04:39:00,65.2,62.8,29.87,NW,304,6.0,9.0,92,0.00,,,0.00,0,Wunderground v.1.15,2013-08-23 08:39:00,
2013-08-23 04:44:00,65.0,62.6,29.87,NNW,331,7.0,7.0,92,0.00,,,0.00,0,Wunderground v.1.15,2013-08-23 08:44:00,
2013-08-23 04:49:00,64.9,62.5,29.87,NNW,334,6.0,8.0,92,0.00,,,0.00,0,Wunderground v.1.15,2013-08-23 08:49:00,
2013-08-23 04:59:00,64.7,62.3,29.87,NNW,327,4.0,5.0,92,0.00,,,0.00,0,Wunderground v.1.15,2013-08-23 08:59:00,
2013-08-23 05:04:00,64.5,62.1,29.88,NW,324,4.0,4.0,92,0.00,,,0.00,0,Wunderground v.1.15,2013-08-23 09:04:00,
2013-08-23 05:14:00,64.2,61.8,29.88,North,355,4.0,6.0,92,0.00,,,0.00,0,Wunderground v.1.15,2013-08-23 09:14:00,
2013-08-23 05:24:00,64.0,61.9,29.89,North,360,5.0,5.0,93,0.00,,,0.00,0,Wunderground v.1.15,2013-08-23 09:24:00,
2013-08-23 05:29:00,63.9,61.8,29.89,NNW,329,4.0,5.0,93,0.00,,,0.00,0,Wunderground v.1.15,2013-08-23 09:29:00,
2013-08-23 05:34:00,63.7,61.6,29.89,NW,325,3.0,5.0,93,0.00,,,0.00,0,Wunderground v.1.15,2013-08-23 09:34:00,
2013-08-23 05:44:00,63.5,61.4,29.90,NW,318,3.0,4.0,93,0.00,,,0.00,0,Wunderground v.1.15,2013-08-23 09:44:00,
2013-08-23 05:49:00,63.3,61.2,29.90,NW,320,3.0,4.0,93,0.00,,,0.00,0,Wunderground v.1.15,2013-08-23 09:49:00,
2013-08-23 05:59:00,63.0,60.9,29.90,NNW,336,3.0,5.0,93,0.00,,,0.00,0,Wunderground v.1.15,2013-08-23 09:59:00,
2013-08-23 06:09:00,62.7,60.9,29.90,NW,313,5.0,5.0,94,0.00,,,0.00,0,Wunderground v.1.15,2013-08-23 10:09:00,
2013-08-23 06:14:00,62.5,60.7,29.91,NNW,336,5.0,6.0,94,0.00,,,0.00,7,Wunderground v.1.15,2013-08-23 10:14:00,
2013-08-23 06:19:00,62.5,60.7,29.91,NW,321,4.0,8.0,94,0.00,,,0.00,12,Wunderground v.1.15,2013-08-23 10:19:00,
2013-08-23 06:24:00,62.4,60.7,29.91,North,355,5.0,5.0,94,0.00,,,0.00,14,Wunderground v.1.15,2013-08-23 10:24:00,
2013-08-23 06:34:00,62.3,60.8,29.91,NNW,334,4.0,4.0,95,0.00,,,0.00,23,Wunderground v.1.15,2013-08-23 10:34:00,
2013-08-23 06:44:00,62.3,60.8,29.92,NW,321,4.0,4.0,95,0.00,,,0.00,35,Wunderground v.1.15,2013-08-23 10:44:00,
2013-08-23 06:49:00,62.4,60.9,29.92,NNW,342,4.0,4.0,95,0.00,,,0.00,35,Wunderground v.1.15,2013-08-23 10:49:00,
2013-08-23 06:54:00,62.4,60.9,29.92,NNW,347,3.0,6.0,95,0.00,,,0.00,54,Wunderground v.1.15,2013-08-23 10:54:00,
2013-08-23 07:04:00,62.7,61.2,29.92,North,355,4.0,5.0,95,0.00,,,0.00,77,Wunderground v.1.15,2013-08-23 11:04:00,
2013-08-23 07:09:00,62.9,61.4,29.92,NNW,338,4.0,5.0,95,0.00,,,0.00,139,Wunderground v.1.15,2013-08-23 11:09:00,
2013-08-23 07:14:00,63.1,61.6,29.92,North,9,4.0,7.0,95,0.00,,,0.00,84,Wunderground v.1.15,2013-08-23 11:14:00,
2013-08-23 07:24:00,63.5,61.4,29.93,North,360,5.0,6.0,93,0.00,,,0.00,88,Wunderground v.1.15,2013-08-23 11:24:00,
2013-08-23 07:29:00,63.7,61.3,29.93,North,360,5.0,6.0,92,0.00,,,0.00,118,Wunderground v.1.15,2013-08-23 11:29:00,
2013-08-23 07:34:00,63.8,61.1,29.93,NW,321,6.0,6.0,91,0.00,,,0.00,149,Wunderground v.1.15,2013-08-23 11:34:00,
2013-08-23 07:39:00,64.1,61.4,29.93,NNW,332,5.0,6.0,91,0.00,,,0.00,172,Wunderground v.1.15,2013-08-23 11:39:00,
2013-08-23 07:44:00,64.4,61.7,29.93,North,355,4.0,4.0,91,0.00,,,0.00,148,Wunderground v.1.15,2013-08-23 11:44:00,
2013-08-23 07:49:00,64.7,61.7,29.93,NNW,346,3.0,4.0,90,0.00,,,0.00,146,Wunderground v.1.15,2013-08-23 11:49:00,
2013-08-23 07:59:00,65.1,61.5,29.94,NW,315,3.0,3.0,88,0.00,,,0.00,160,Wunderground v.1.15,2013-08-23 11:59:00,
2013-08-23 08:09:00,65.6,61.9,29.94,NNW,336,3.0,5.0,88,0.00,,,0.00,169,Wunderground v.1.15,2013-08-23 12:09:00,
2013-08-23 08:19:00,65.9,62.2,29.95,NNW,348,3.0,3.0,88,0.00,,,0.00,167,Wunderground v.1.15,2013-08-23 12:19:00,
2013-08-23 08:29:00,66.2,61.9,29.95,NNW,336,5.0,6.0,86,0.00,,,0.00,151,Wunderground v.1.15,2013-08-23 12:29:00,
2013-08-23 08:34:00,66.2,61.9,29.95,NNW,327,5.0,5.0,86,0.00,,,0.00,156,Wunderground v.1.15,2013-08-23 12:34:00,
2013-08-23 08:44:00,66.3,62.0,29.96,North,360,3.0,3.0,86,0.00,,,0.00,158,Wunderground v.1.15,2013-08-23 12:44:00,
2013-08-23 08:54:00,66.8,62.5,29.96,NNE,16,3.0,3.0,86,0.00,,,0.00,320,Wunderground v.1.15,2013-08-23 12:54:00,
2013-08-23 08:59:00,67.1,62.8,29.96,North,11,2.0,3.0,86,0.00,,,0.00,276,Wunderground v.1.15,2013-08-23 12:59:00,
2013-08-23 09:04:00,67.8,62.8,29.96,NW,322,1.0,2.0,84,0.00,,,0.00,315,Wunderground v.1.15,2013-08-23 13:04:00,
2013-08-23 09:14:00,69.4,64.4,29.96,NW,313,3.0,8.0,84,0.00,,,0.00,394,Wunderground v.1.15,2013-08-23 13:14:00,
2013-08-23 09:24:00,70.7,63.5,29.96,NNE,13,4.0,4.0,78,0.00,,,0.00,531,Wunderground v.1.15,2013-08-23 13:24:00,
2013-08-23 09:29:00,71.0,64.9,29.96,NNW,336,4.0,4.0,81,0.00,,,0.00,589,Wunderground v.1.15,2013-08-23 13:29:00,
2013-08-23 09:34:00,72.1,64.9,29.96,NNW,332,4.0,4.0,78,0.00,,,0.00,587,Wunderground v.1.15,2013-08-23 13:34:00,
2013-08-23 09:39:00,71.4,62.7,29.96,North,355,5.0,6.0,74,0.00,,,0.00,585,Wunderground v.1.15,2013-08-23 13:39:00,
2013-08-23 09:49:00,72.8,64.0,29.96,North,5,4.0,7.0,74,0.00,,,0.00,707,Wunderground v.1.15,2013-08-23 13:49:00,
2013-08-23 09:54:00,72.4,63.3,29.96,ENE,60,5.0,5.0,73,0.00,,,0.00,719,Wunderground v.1.15,2013-08-23 13:54:00,
2013-08-23 09:59:00,73.1,64.7,29.97,NE,38,5.0,5.0,75,0.00,,,0.00,679,Wunderground v.1.15,2013-08-23 13:59:00,
2013-08-23 10:04:00,72.9,62.1,29.97,North,360,4.0,4.0,69,0.00,,,0.00,613,Wunderground v.1.15,2013-08-23 14:04:00,
2013-08-23 10:14:00,72.0,63.3,29.97,North,360,5.0,5.0,74,0.00,,,0.00,591,Wunderground v.1.15,2013-08-23 14:14:00,
2013-08-23 10:19:00,71.9,63.5,29.97,NNW,331,5.0,5.0,75,0.00,,,0.00,568,Wunderground v.1.15,2013-08-23 14:19:00,
2013-08-23 10:24:00,71.8,62.3,29.97,NNW,328,6.0,7.0,72,0.00,,,0.00,661,Wunderground v.1.15,2013-08-23 14:24:00,
2013-08-23 10:29:00,72.0,61.7,29.97,North,360,6.0,7.0,70,0.00,,,0.00,670,Wunderground v.1.15,2013-08-23 14:29:00,
2013-08-23 10:34:00,72.4,62.5,29.98,NNW,336,6.0,6.0,71,0.00,,,0.00,679,Wunderground v.1.15,2013-08-23 14:34:00,
2013-08-23 10:44:00,73.4,62.6,29.97,NW,315,5.0,8.0,69,0.00,,,0.00,696,Wunderground v.1.15,2013-08-23 14:44:00,
2013-08-23 10:49:00,73.3,62.1,29.97,NW,313,5.0,8.0,68,0.00,,,0.00,666,Wunderground v.1.15,2013-08-23 14:49:00,
2013-08-23 10:54:00,73.3,62.9,29.97,NNW,347,6.0,6.0,70,0.00,,,0.00,722,Wunderground v.1.15,2013-08-23 14:54:00,
2013-08-23 10:59:00,74.0,63.2,29.96,NNW,342,5.0,6.0,69,0.00,,,0.00,715,Wunderground v.1.15,2013-08-23 14:59:00,
2013-08-23 11:09:00,74.0,62.8,29.96,NNE,26,5.0,5.0,68,0.00,,,0.00,735,Wunderground v.1.15,2013-08-23 15:09:00,
2013-08-23 11:14:00,74.4,64.4,29.96,NNW,341,5.0,9.0,71,0.00,,,0.00,749,Wunderground v.1.15,2013-08-23 15:14:00,
2013-08-23 11:19:00,74.2,63.4,29.96,North,355,6.0,9.0,69,0.00,,,0.00,708,Wunderground v.1.15,2013-08-23 15:19:00,
2013-08-23 11:24:00,74.2,63.4,29.96,NNW,330,7.0,7.0,69,0.00,,,0.00,766,Wunderground v.1.15,2013-08-23 15:24:00,
2013-08-23 11:29:00,74.8,62.2,29.96,NW,309,6.0,9.0,65,0.00,,,0.00,780,Wunderground v.1.15,2013-08-23 15:29:00,
2013-08-23 11:34:00,74.7,63.4,29.96,NNW,336,6.0,8.0,68,0.00,,,0.00,747,Wunderground v.1.15,2013-08-23 15:34:00,
2013-08-23 11:39:00,74.4,61.4,29.96,NNW,342,7.0,8.0,64,0.00,,,0.00,789,Wunderground v.1.15,2013-08-23 15:39:00,
2013-08-23 11:44:00,74.9,61.9,29.96,NW,318,8.0,8.0,64,0.00,,,0.00,798,Wunderground v.1.15,2013-08-23 15:44:00,
2013-08-23 11:54:00,75.4,60.1,29.96,North,360,6.0,8.0,59,0.00,,,0.00,803,Wunderground v.1.15,2013-08-23 15:54:00,
2013-08-23 12:04:00,75.2,61.3,29.96,NNW,346,5.0,8.0,62,0.00,,,0.00,823,Wunderground v.1.15,2013-08-23 16:04:00,
2013-08-23 12:09:00,75.5,61.1,29.96,NW,321,5.0,8.0,61,0.00,,,0.00,824,Wunderground v.1.15,2013-08-23 16:09:00,
2013-08-23 12:19:00,74.2,58.5,29.96,NW,309,7.0,7.0,58,0.00,,,0.00,631,Wunderground v.1.15,2013-08-23 16:19:00,
2013-08-23 12:24:00,74.6,59.8,29.96,NNW,348,7.0,8.0,60,0.00,,,0.00,680,Wunderground v.1.15,2013-08-23 16:24:00,
2013-08-23 12:34:00,75.3,60.5,29.96,North,349,7.0,8.0,60,0.00,,,0.00,875,Wunderground v.1.15,2013-08-23 16:34:00,
2013-08-23 12:39:00,74.6,59.8,29.96,North,355,7.0,8.0,60,0.00,,,0.00,733,Wunderground v.1.15,2013-08-23 16:39:00,
2013-08-23 12:49:00,76.0,60.6,29.95,NW,320,6.0,13.0,59,0.00,,,0.00,860,Wunderground v.1.15,2013-08-23 16:49:00,
2013-08-23 12:54:00,76.3,60.4,29.96,North,5,7.0,7.0,58,0.00,,,0.00,847,Wunderground v.1.15,2013-08-23 16:54:00,
2013-08-23 12:59:00,76.0,61.6,29.96,NNW,346,6.0,8.0,61,0.00,,,0.00,872,Wunderground v.1.15,2013-08-23 16:59:00,
2013-08-23 13:09:00,75.8,58.5,29.96,NNE,19,6.0,7.0,55,0.00,,,0.00,923,Wunderground v.1.15,2013-08-23 17:09:00,
2013-08-23 13:19:00,75.6,58.3,29.96,NW,320,6.0,6.0,55,0.00,,,0.00,911,Wunderground v.1.15,2013-08-23 17:19:00,
2013-08-23 13:29:00,76.9,62.4,29.97,NNW,340,4.0,11.0,61,0.00,,,0.00,1034,Wunderground v.1.15,2013-08-23 17:29:00,
2013-08-23 13:34:00,76.1,60.7,29.97,North,360,5.0,5.0,59,0.00,,,0.00,907,Wunderground v.1.15,2013-08-23 17:34:00,
2013-08-23 13:44:00,75.6,61.2,29.97,NNW,328,5.0,5.0,61,0.00,,,0.00,898,Wunderground v.1.15,2013-08-23 17:44:00,
2013-08-23 13:49:00,76.3,61.9,29.97,NW,323,5.0,5.0,61,0.00,,,0.00,905,Wunderground v.1.15,2013-08-23 17:49:00,
2013-08-23 13:54:00,76.0,59.7,29.97,North,355,7.0,7.0,57,0.00,,,0.00,733,Wunderground v.1.15,2013-08-23 17:54:00,
2013-08-23 14:04:00,75.5,59.7,29.97,NNW,329,5.0,5.0,58,0.00,,,0.00,318,Wunderground v.1.15,2013-08-23 18:04:00,
2013-08-23 14:14:00,75.0,61.5,29.97,North,5,5.0,5.0,63,0.00,,,0.00,898,Wunderground v.1.15,2013-08-23 18:14:00,
2013-08-23 14:24:00,73.2,59.4,29.98,North,355,3.0,5.0,62,0.00,,,0.00,257,Wunderground v.1.15,2013-08-23 18:24:00,
2013-08-23 14:29:00,73.1,59.8,29.97,NNW,341,5.0,5.0,63,0.00,,,0.00,501,Wunderground v.1.15,2013-08-23 18:29:00,
2013-08-23 14:34:00,75.1,62.5,29.97,NNW,348,4.0,4.0,65,0.00,,,0.00,904,Wunderground v.1.15,2013-08-23 18:34:00,
2013-08-23 14:44:00,74.2,60.3,29.98,North,350,5.0,6.0,62,0.00,,,0.00,295,Wunderground v.1.15,2013-08-23 18:44:00,
2013-08-23 14:49:00,74.4,61.4,29.97,North,360,6.0,6.0,64,0.00,,,0.00,780,Wunderground v.1.15,2013-08-23 18:49:00,
2013-08-23 14:54:00,75.4,60.5,29.97,NNW,335,5.0,7.0,60,0.00,,,0.00,791,Wunderground v.1.15,2013-08-23 18:54:00,
2013-08-23 15:04:00,75.1,59.8,29.97,North,355,6.0,9.0,59,0.00,,,0.00,847,Wunderground v.1.15,2013-08-23 19:04:00,
2013-08-23 15:09:00,74.5,60.2,29.98,NW,312,6.0,9.0,61,0.00,,,0.00,729,Wunderground v.1.15,2013-08-23 19:09:00,
2013-08-23 15:19:00,75.2,60.4,29.98,NNW,344,6.0,7.0,60,0.00,,,0.00,810,Wunderground v.1.15,2013-08-23 19:19:00,
2013-08-23 15:24:00,75.6,62.1,29.98,North,350,6.0,6.0,63,0.00,,,0.00,737,Wunderground v.1.15,2013-08-23 19:24:00,
2013-08-23 15:34:00,74.9,61.9,29.98,NNW,338,5.0,10.0,64,0.00,,,0.00,265,Wunderground v.1.15,2013-08-23 19:34:00,
2013-08-23 15:39:00,74.2,60.3,29.98,WNW,287,5.0,10.0,62,0.00,,,0.00,656,Wunderground v.1.15,2013-08-23 19:39:00,
2013-08-23 15:44:00,73.3,59.0,29.98,North,355,7.0,7.0,61,0.00,,,0.00,234,Wunderground v.1.15,2013-08-23 19:44:00,
2013-08-23 15:49:00,72.5,59.6,29.98,NNE,30,6.0,7.0,64,0.00,,,0.00,638,Wunderground v.1.15,2013-08-23 19:49:00,
2013-08-23 15:59:00,73.2,60.3,29.98,NNW,348,5.0,6.0,64,0.00,,,0.00,260,Wunderground v.1.15,2013-08-23 19:59:00,
2013-08-23 16:09:00,72.4,60.0,29.98,NNE,21,5.0,7.0,65,0.00,,,0.00,204,Wunderground v.1.15,2013-08-23 20:09:00,
2013-08-23 16:19:00,72.1,58.8,29.99,NNW,346,4.0,9.0,63,0.00,,,0.00,396,Wunderground v.1.15,2013-08-23 20:19:00,
2013-08-23 16:24:00,71.5,58.7,29.99,NNW,339,4.0,4.0,64,0.00,,,0.00,144,Wunderground v.1.15,2013-08-23 20:24:00,
2013-08-23 16:34:00,70.6,59.9,29.99,NNE,12,5.0,5.0,69,0.00,,,0.00,209,Wunderground v.1.15,2013-08-23 20:34:00,
2013-08-23 16:44:00,70.6,58.7,29.99,NNW,344,5.0,5.0,66,0.00,,,0.00,149,Wunderground v.1.15,2013-08-23 20:44:00,
2013-08-23 16:49:00,70.3,57.5,29.99,WNW,302,5.0,8.0,64,0.00,,,0.00,144,Wunderground v.1.15,2013-08-23 20:49:00,
2013-08-23 16:54:00,70.1,57.4,30.00,NW,320,4.0,4.0,64,0.00,,,0.00,156,Wunderground v.1.15,2013-08-23 20:54:00,
2013-08-23 16:59:00,69.9,58.4,29.99,NNW,344,4.0,5.0,67,0.00,,,0.00,139,Wunderground v.1.15,2013-08-23 20:59:00,
2013-08-23 17:09:00,69.5,56.8,30.00,North,355,5.0,5.0,64,0.00,,,0.00,127,Wunderground v.1.15,2013-08-23 21:09:00,
2013-08-23 17:14:00,69.4,55.8,30.00,NNW,348,4.0,4.0,62,0.00,,,0.00,125,Wunderground v.1.15,2013-08-23 21:14:00,
2013-08-23 17:19:00,69.1,58.5,30.00,North,360,4.0,4.0,69,0.00,,,0.00,125,Wunderground v.1.15,2013-08-23 21:19:00,
2013-08-23 17:29:00,68.8,57.4,30.00,NNW,336,3.0,5.0,67,0.00,,,0.00,113,Wunderground v.1.15,2013-08-23 21:29:00,
2013-08-23 17:39:00,68.7,58.1,30.00,NNW,344,3.0,4.0,69,0.00,,,0.00,118,Wunderground v.1.15,2013-08-23 21:39:00,
2013-08-23 17:44:00,68.8,57.4,30.00,NW,324,3.0,4.0,67,0.00,,,0.00,120,Wunderground v.1.15,2013-08-23 21:44:00,
2013-08-23 17:54:00,68.8,57.8,30.00,NNW,341,3.0,3.0,68,0.00,,,0.00,107,Wunderground v.1.15,2013-08-23 21:54:00,
2013-08-23 18:04:00,68.5,57.1,30.00,NW,320,4.0,5.0,67,0.00,,,0.00,102,Wunderground v.1.15,2013-08-23 22:04:00,
2013-08-23 18:09:00,68.5,57.1,30.00,NW,324,5.0,6.0,67,0.00,,,0.00,88,Wunderground v.1.15,2013-08-23 22:09:00,
2013-08-23 18:19:00,68.0,56.2,30.00,NNW,338,5.0,7.0,66,0.00,,,0.00,69,Wunderground v.1.15,2013-08-23 22:19:00,
2013-08-23 18:29:00,67.6,55.8,30.00,North,355,4.0,6.0,66,0.00,,,0.00,65,Wunderground v.1.15,2013-08-23 22:29:00,
2013-08-23 18:39:00,67.5,55.7,30.00,NW,316,4.0,4.0,66,0.00,,,0.00,53,Wunderground v.1.15,2013-08-23 22:39:00,
2013-08-23 18:49:00,67.0,55.3,30.01,NW,323,4.0,5.0,66,0.00,,,0.00,37,Wunderground v.1.15,2013-08-23 22:49:00,
2013-08-23 18:59:00,66.8,55.5,30.01,NW,321,4.0,4.0,67,0.00,,,0.00,21,Wunderground v.1.15,2013-08-23 22:59:00,
2013-08-23 19:09:00,66.3,55.8,30.01,NNW,332,4.0,4.0,69,0.00,,,0.00,16,Wunderground v.1.15,2013-08-23 23:09:00,
2013-08-23 19:14:00,65.9,55.8,30.01,NNW,339,4.0,4.0,70,0.00,,,0.00,14,Wunderground v.1.15,2013-08-23 23:14:00,
2013-08-23 19:19:00,65.7,55.6,30.01,NNW,342,4.0,5.0,70,0.00,,,0.00,12,Wunderground v.1.15,2013-08-23 23:19:00,
2013-08-23 19:24:00,65.6,55.9,30.02,NNW,332,4.0,5.0,71,0.00,,,0.00,11,Wunderground v.1.15,2013-08-23 23:24:00,
2013-08-23 19:34:00,65.2,56.3,30.02,NNW,340,4.0,6.0,73,0.00,,,0.00,7,Wunderground v.1.15,2013-08-23 23:34:00,
2013-08-23 19:39:00,65.0,56.1,30.03,NNW,342,4.0,6.0,73,0.00,,,0.00,5,Wunderground v.1.15,2013-08-23 23:39:00,
2013-08-23 19:44:00,65.0,56.1,30.03,NW,315,4.0,4.0,73,0.00,,,0.00,0,Wunderground v.1.15,2013-08-23 23:44:00,
2013-08-23 19:49:00,64.9,56.4,30.03,NNW,346,4.0,4.0,74,0.00,,,0.00,0,Wunderground v.1.15,2013-08-23 23:49:00,
2013-08-23 19:59:00,64.4,56.7,30.03,North,351,4.0,4.0,76,0.00,,,0.00,0,Wunderground v.1.15,2013-08-23 23:59:00,
2013-08-23 20:04:00,64.4,56.7,30.04,NNW,340,4.0,4.0,76,0.00,,,0.00,0,Wunderground v.1.15,2013-08-24 00:04:00,
2013-08-23 20:09:00,64.3,56.6,30.04,NNW,344,4.0,4.0,76,0.00,,,0.00,0,Wunderground v.1.15,2013-08-24 00:09:00,
2013-08-23 20:19:00,64.2,56.8,30.04,NNW,338,4.0,5.0,77,0.00,,,0.00,0,Wunderground v.1.15,2013-08-24 00:19:00,
2013-08-23 20:24:00,64.0,56.6,30.05,NNW,329,4.0,4.0,77,0.00,,,0.00,0,Wunderground v.1.15,2013-08-24 00:24:00,
2013-08-23 20:34:00,63.9,56.5,30.05,NNW,336,4.0,4.0,77,0.00,,,0.00,0,Wunderground v.1.15,2013-08-24 00:34:00,
2013-08-23 20:39:00,63.9,56.5,30.06,North,355,3.0,4.0,77,0.00,,,0.00,0,Wunderground v.1.15,2013-08-24 00:39:00,
2013-08-23 20:44:00,63.8,56.4,30.06,NNE,14,3.0,4.0,77,0.00,,,0.00,0,Wunderground v.1.15,2013-08-24 00:44:00,
2013-08-23 20:49:00,63.8,56.4,30.06,NNW,339,3.0,4.0,77,0.00,,,0.00,0,Wunderground v.1.15,2013-08-24 00:49:00,
2013-08-23 20:54:00,63.8,56.4,30.06,North,360,4.0,5.0,77,0.00,,,0.00,0,Wunderground v.1.15,2013-08-24 00:54:00,
2013-08-23 20:59:00,63.9,56.2,30.07,NNW,330,4.0,5.0,76,0.00,,,0.00,0,Wunderground v.1.15,2013-08-24 00:59:00,
2013-08-23 21:09:00,63.8,56.1,30.07,North,5,4.0,6.0,76,0.00,,,0.00,0,Wunderground v.1.15,2013-08-24 01:09:00,
2013-08-23 21:14:00,63.6,55.9,30.07,NW,323,4.0,6.0,76,0.00,,,0.00,0,Wunderground v.1.15,2013-08-24 01:14:00,
2013-08-23 21:24:00,63.3,55.6,30.07,NNW,343,4.0,5.0,76,0.00,,,0.00,0,Wunderground v.1.15,2013-08-24 01:24:00,
2013-08-23 21:29:00,63.1,55.4,30.07,NNW,342,4.0,5.0,76,0.00,,,0.00,0,Wunderground v.1.15,2013-08-24 01:29:00,
2013-08-23 21:39:00,62.6,54.9,30.08,NNW,340,4.0,4.0,76,0.00,,,0.00,0,Wunderground v.1.15,2013-08-24 01:39:00,
2013-08-23 21:44:00,62.5,55.2,30.08,NNW,332,4.0,5.0,77,0.00,,,0.00,0,Wunderground v.1.15,2013-08-24 01:44:00,
2013-08-23 21:49:00,62.3,54.6,30.08,NNW,348,4.0,5.0,76,0.00,,,0.00,0,Wunderground v.1.15,2013-08-24 01:49:00,
2013-08-23 21:54:00,62.2,54.2,30.08,NNW,345,4.0,4.0,75,0.00,,,0.00,0,Wunderground v.1.15,2013-08-24 01:54:00,
2013-08-23 22:04:00,61.6,53.6,30.08,North,350,3.0,5.0,75,0.00,,,0.00,0,Wunderground v.1.15,2013-08-24 02:04:00,
2013-08-23 22:09:00,61.4,53.4,30.09,North,355,3.0,5.0,75,0.00,,,0.00,0,Wunderground v.1.15,2013-08-24 02:09:00,
2013-08-23 22:19:00,61.1,53.1,30.09,NNW,329,4.0,8.0,75,0.00,,,0.00,0,Wunderground v.1.15,2013-08-24 02:19:00,
2013-08-23 22:29:00,61.0,52.3,30.09,NW,321,5.0,7.0,73,0.00,,,0.00,0,Wunderground v.1.15,2013-08-24 02:29:00,
2013-08-23 22:34:00,61.1,51.6,30.09,NNW,346,5.0,6.0,71,0.00,,,0.00,0,Wunderground v.1.15,2013-08-24 02:34:00,
2013-08-23 22:44:00,61.0,51.1,30.10,NNW,327,5.0,5.0,70,0.00,,,0.00,0,Wunderground v.1.15,2013-08-24 02:44:00,
2013-08-23 22:49:00,61.0,51.1,30.10,NW,321,5.0,5.0,70,0.00,,,0.00,0,Wunderground v.1.15,2013-08-24 02:49:00,
2013-08-23 22:54:00,61.0,51.1,30.10,NNW,334,5.0,5.0,70,0.00,,,0.00,0,Wunderground v.1.15,2013-08-24 02:54:00,
2013-08-23 23:04:00,60.9,51.0,30.10,North,350,5.0,5.0,70,0.00,,,0.00,0,Wunderground v.1.15,2013-08-24 03:04:00,
2013-08-23 23:09:00,60.8,51.0,30.10,NNW,336,5.0,6.0,70,0.00,,,0.00,0,Wunderground v.1.15,2013-08-24 03:09:00,
2013-08-23 23:14:00,60.7,50.9,30.11,NW,325,5.0,7.0,70,0.00,,,0.00,0,Wunderground v.1.15,2013-08-24 03:14:00,
2013-08-23 23:19:00,60.6,50.8,30.11,NW,315,5.0,7.0,70,0.00,,,0.00,0,Wunderground v.1.15,2013-08-24 03:19:00,
2013-08-23 23:29:00,60.3,50.1,30.11,NW,320,5.0,6.0,69,0.00,,,0.00,0,Wunderground v.1.15,2013-08-24 03:29:00,
2013-08-23 23:39:00,60.1,49.9,30.12,NW,324,6.0,6.0,69,0.00,,,0.00,0,Wunderground v.1.15,2013-08-24 03:39:00,
2013-08-23 23:49:00,59.8,49.6,30.12,NNW,333,5.0,5.0,69,0.00,,,0.00,0,Wunderground v.1.15,2013-08-24 03:49:00,
2013-08-23 23:54:00,59.7,49.5,30.12,NW,317,4.0,7.0,69,0.00,,,0.00,0,Wunderground v.1.15,2013-08-24 03:54:00,
2013-08-23 23:59:00,59.5,49.3,30.12,North,360,5.0,7.0,69,0.00,,,0.00,0,Wunderground v.1.15,2013-08-24 03:59:00,